SL-16 DEB, 22494

Orbit data source: Space-Track

SL-16 DEB, 22494 is space debris in LEO originally from a launch on Fri, 25 Dec 1992 UTC launched from the Tyuratam Missile And Space Complex (TTMTR). Debris objects in space refer to the collection of defunct objects orbiting the Earth. Examples of debris include non-operational satellites, rocket bodies, and fragments generated from explosions, collisions, or faulty payload assembly.

Loading next visibility...
Identifier
22494, 1992-093GD
Orbit
LEO
Country
Flag of CISCIS
Related business
Manufacturer
Unknown
Mission
Spacecraft
Bus & Motor
Unknown
Mass
Unknown
Launch date (UTC)
1992-12-25 (33 years ago)
Launch vehicle
Unknown
Launch site
Tyuratam Missile And Space Complex (TTMTR)
Object type
Payload
Rocket body
Debris
Shape & HBR
Unknown shape, 0.1 m
Radar Cross Section
Small (<0.1 m²)

Expand to show TLE details & history
Last TLE update: 10 hours ago

TLE from 10 hours ago
0 SL-16 DEB
1 22494U 92093GD  26037.00643257  .00007101  00000-0  34525-2 0  9999
2 22494  70.8110   1.7430 0157301 260.9953 174.9427 14.12274833670682
Epoch: 2026-02-06T00:09Z
TLE epoch observation values (Epoch: 2026-02-06T00:09:15.774Z)
Latitude
66.55601°
Longitude
-83.74728°
Altitude
975.859 km
Speed
7.312 km/s
True Right ascension
03h 38m 52s
True Declination
66° 26' 02"
Sunlit
Object was in daylight at epoch
Visualization orbit readout
Latitude
Unknown
Longitude
Unknown
Altitude
Unknown
Speed
Unknown
Apparent Right ascension
Unknown
Apparent Declination
Unknown
Sunlit
N/A
Visualization observer readout
Local Sidereal Time
12:08:30
Azimuth
Unknown
Elevation
Unknown
Doppler factor
Unknown
Orbital elements
Apogee altitude
963.235 km
Perigee altitude
735.851 km
Semi-major axis
7,227.68 km
Eccentricity
0.01573
Inclination
70.811°
RAAN
1.743°
Arg. of periapsis
260.9953°
True anomaly
175.09854°
Mean anomaly
174.9427°
Eccentric anomaly
175.02092°
Mean motion
3.5322 °/min
Orbital period
101.92 mins
BSTAR
0.0034525
Loading maneuver chart data...
Computing Atmospheric mass density...
Loading historical data...
Loading historical data...
Loading historical data...
Loading historical data...
Loading historical data...
Loading historical data...
Loading historical data...

Documentation

Showing up to 5 results
|